Location: M?digepalle
(16.1753°N, 80.3496°E)
Time: 13:01:10
(UTC+00:00)

CZ-3A R/B - Pass Details

Date: 29 October 2020
Orbit: 405 x 34962 km, 24.6° (Epoch: 22 November)

Event Time Altitude Azimuth Distance (km) Brightness Sun altitude
Rises 13:34:59 0° 255° (WSW) 6,044 8.6 -20.9°
Reaches altitude 10° 13:40:47 10° 258° (WSW) 3,208 6.8 -22.3°
Enters shadow 13:46:22 59° 332° (NNW) 617 2.0 -23.6°
